Vorticity
9 9 9 9 9 9 9 7 7 9 7 5 6 10 14 11 1 -3 -1 1 9 13 12 13 14 11 8 8 8 8 8 7 7 10 8 3 4 4 5 6 8 8 5 7 9 11 10 10 9 8 8 5 5 5 4 4 5 7 6 4 2 3 2 3 3 3 2 3 3 5 10 6 4 5 5 6 7 7 7 7 6 5 5 5 6 6 6 5 7 7 6 7 7 9 8 7 8
9 9 8 8 7 7 7 7 6 7 8 4 11 21 14 12 6 4 8 8 16 16 8 5 9 9 7 8 7 8 8 7 9 10 9 9 10 9 9 8 9 9 6 8 10 11 10 10 9 7 6 6 5 4 5 5 5 6 5 3 3 3 3 4 2 2 2 3 3 6 10 6 3 5 5 6 7 7 7 7 6 6 5 5 6 6 6 5 7 7 6 6 7 8 7 7 9
8 8 6 7 7 6 7 7 6 7 10 3 9 23 9 7 9 6 8 7 11 8 4 4 8 9 6 10 8 8 8 9 10 5 6 11 13 12 11 9 8 8 7 9 10 10 10 9 8 8 7 6 5 4 4 5 5 6 4 2 3 4 4 3 2 2 2 4 3 7 10 5 3 4 5 6 7 8 7 7 7 7 5 5 5 6 5 6 7 7 6 6 7 8 7 7 8
7 7 6 7 6 6 8 6 9 7 9 8 7 12 2 1 1 4 9 6 7 4 5 5 6 8 6 6 5 8 7 7 9 8 8 7 8 8 7 6 5 6 6 7 8 8 9 9 8 8 7 5 4 4 3 5 6 5 4 2 4 4 3 2 2 2 3 4 5 10 8 3 3 4 5 6 7 8 7 7 7 7 5 4 4 5 5 6 7 7 6 6 7 7 8 7 7
7 8 7 7 5 7 8 6 10 6 9 11 8 9 -1 -6 -6 2 6 3 7 7 6 5 7 7 6 8 5 5 4 4 5 6 7 7 8 5 5 7 4 4 6 8 8 8 9 10 10 8 6 5 4 3 3 6 7 5 3 2 4 3 1 2 2 3 4 4 6 11 6 2 3 3 5 5 7 8 8 7 7 7 5 4 4 5 5 6 6 7 6 6 7 7 7 7 6
8 8 6 6 7 6 6 6 6 5 11 9 6 10 5 -1 -6 -2 3 1 5 7 6 5 9 7 7 9 5 5 6 5 5 7 7 7 8 8 7 6 5 3 4 6 7 8 11 11 9 7 5 4 4 4 5 7 7 4 2 3 4 2 0 1 2 4 5 5 7 10 5 3 3 4 5 5 7 8 8 7 7 7 5 4 4 5 5 6 6 7 7 7 7 6 6 5 5
7 7 7 6 6 5 4 5 5 5 7 8 6 -7 -7 7 3 4 7 3 4 6 5 6 7 6 7 5 4 5 4 6 8 8 7 8 8 8 7 6 8 5 4 5 7 11 13 11 7 5 6 6 6 6 6 7 6 3 2 5 4 1 0 1 2 5 5 6 9 8 4 3 3 4 5 5 6 8 8 7 7 6 5 4 4 5 5 5 6 7 7 8 6 5 5 3 3
6 6 6 6 5 6 6 5 6 7 4 6 3 -18 -16 5 6 6 8 5 7 6 5 9 10 9 7 1 5 7 3 9 9 6 6 8 8 6 6 5 5 3 6 7 12 18 11 8 8 8 8 8 8 7 7 6 4 3 3 4 1 -0 1 2 4 6 7 9 10 6 3 3 3 4 5 5 6 8 9 7 7 6 5 4 4 5 5 5 6 7 7 7 6 5 4 3 2
5 5 6 6 6 5 5 8 7 8 11 8 2 -4 -2 5 4 5 5 7 6 5 6 8 10 9 4 -0 6 7 2 4 5 8 5 4 7 7 7 7 9 10 18 27 32 24 8 9 9 8 10 8 7 6 6 5 3 3 3 1 -0 1 2 3 5 7 9 10 9 4 3 2 3 5 5 6 7 8 9 8 7 6 5 5 5 5 5 5 6 7 7 7 7 5 4 2 2
6 6 6 7 7 8 7 9 9 8 11 3 -2 4 6 3 6 7 3 6 7 6 6 5 10 8 0 1 8 4 2 2 4 15 12 7 10 9 14 18 18 19 24 26 21 8 -2 6 7 4 7 6 6 5 4 3 3 2 -1 -1 -0 2 3 4 6 8 10 9 6 3 2 3 4 5 5 6 8 9 9 8 6 5 5 5 5 5 5 5 6 6 6 7 8 7 3 1 2
7 7 7 7 7 9 8 9 14 17 16 7 0 1 5 5 5 7 2 6 9 5 6 7 12 7 -2 5 9 2 3 3 6 23 19 5 11 11 11 15 12 12 13 0 -8 -5 -5 2 4 1 6 5 5 4 2 3 2 -0 -2 1 3 2 3 4 6 8 10 8 5 3 2 3 4 5 6 7 8 10 9 7 7 5 5 5 5 4 5 5 6 6 5 7 8 9 3 -0 4
6 7 7 7 7 7 9 11 8 11 17 10 5 0 5 10 5 6 4 5 10 7 9 6 7 4 0 8 9 4 6 6 5 17 12 -5 6 10 2 9 6 -3 6 8 2 2 -3 -2 -0 1 7 5 3 2 2 1 -1 -0 1 3 3 3 4 5 7 8 9 8 4 2 3 4 5 6 7 8 8 9 9 7 6 5 5 6 5 4 6 5 5 5 5 6 8 12 5 -1 4
7 9 6 6 8 6 7 5 -4 -3 3 -3 3 5 4 9 3 6 6 7 12 7 4 3 10 10 4 4 3 8 8 6 6 8 12 2 4 9 5 11 11 1 1 8 6 3 3 2 3 7 10 6 4 4 2 1 1 4 4 3 3 4 5 6 7 8 9 7 4 3 4 5 6 6 7 8 8 8 8 7 5 5 5 5 5 5 6 5 5 6 5 6 7 13 9 2 3
8 8 7 8 6 8 7 7 6 1 -3 -6 1 5 3 6 3 9 7 5 10 3 5 10 9 3 1 5 6 14 8 6 9 2 11 13 4 5 8 6 9 10 1 2 7 6 8 8 8 9 14 14 5 1 1 1 3 4 4 4 5 6 6 7 8 7 8 6 4 3 4 6 6 6 6 7 8 9 9 7 6 5 5 5 5 5 6 5 6 6 5 6 7 14 15 4 1
8 6 8 8 7 11 8 8 14 3 -3 -0 3 4 5 6 3 9 6 6 10 5 12 12 2 1 5 9 10 16 15 10 7 1 10 13 3 -1 5 5 2 3 4 13 12 5 6 8 4 0 15 28 17 10 9 4 2 1 5 7 6 7 7 7 8 7 7 6 4 4 5 6 5 4 6 8 9 10 10 7 6 6 6 5 5 5 6 6 7 6 5 7 6 12 19 7 1
7 8 9 9 9 10 11 14 16 9 2 1 2 1 1 6 7 7 4 8 11 7 8 -1 -1 10 8 9 8 8 8 3 -1 2 9 8 4 4 6 8 5 2 6 8 0 3 7 4 3 5 17 23 15 14 16 15 13 6 3 6 8 7 8 8 7 6 6 4 4 5 6 5 4 5 6 8 10 10 10 9 7 6 6 6 6 5 6 6 7 6 4 9 8 9 18 10 2
7 8 8 10 11 13 18 11 8 11 2 -1 1 4 8 12 11 6 3 7 7 5 6 1 6 11 5 10 11 3 0 1 3 5 7 8 7 4 3 6 5 2 5 4 1 6 7 3 6 11 10 6 4 6 12 19 26 26 13 5 6 7 8 8 6 6 5 3 4 5 5 5 4 5 6 8 10 10 10 9 7 6 6 6 6 5 6 6 6 8 4 7 8 7 14 14 6
8 9 8 9 13 17 10 -9 -2 4 -13 -6 6 10 14 10 10 7 6 9 5 5 9 7 8 10 6 6 7 6 6 5 4 3 7 11 5 1 2 5 5 1 4 7 8 6 5 8 6 5 4 4 5 4 8 9 19 35 27 8 -0 6 10 7 6 5 4 3 5 6 5 5 4 6 10 13 11 9 8 7 6 5 6 5 5 5 6 6 6 8 6 6 6 2 7 15 12
8 9 8 9 11 7 -5 -13 2 -4 -22 -0 13 7 5 4 9 4 3 8 9 14 18 12 6 9 9 5 7 10 8 4 3 6 8 6 3 4 4 4 4 3 5 5 6 4 4 7 2 3 5 5 4 4 9 3 11 24 24 23 9 6 12 7 7 4 3 4 5 7 6 5 5 8 12 11 9 10 10 8 7 5 5 5 6 6 6 7 7 8 7 6 5 0 -1 9 16
9 8 8 13 10 -3 -6 -1 3 -3 -5 10 10 2 3 5 5 3 5 13 20 14 7 7 4 5 7 6 11 11 8 7 7 9 10 9 7 7 5 6 7 6 5 3 3 2 5 4 -1 2 2 6 2 3 16 11 15 15 12 27 15 9 14 7 7 5 4 6 6 7 6 6 8 10 10 8 11 13 11 7 7 6 6 7 7 8 7 7 7 7 9 8 7 4 -1 3 14
8 9 10 8 2 -3 -0 4 2 5 11 10 6 6 8 3 3 7 8 16 25 6 -9 1 4 7 9 8 10 7 7 8 5 3 11 17 11 7 8 7 6 6 5 4 4 2 4 1 1 3 1 9 3 4 24 19 14 12 13 16 1 6 15 6 5 6 7 7 8 6 4 8 10 10 9 10 13 12 10 7 9 8 8 8 7 8 7 7 9 9 9 8 8 6 3 4 13
8 10 12 4 -0 3 6 7 5 7 8 6 6 6 5 4 7 9 5 11 10 -6 -4 4 6 14 15 12 10 4 5 8 4 2 13 16 6 5 7 6 5 5 5 4 5 3 2 3 6 6 3 10 8 10 24 17 10 17 25 9 -11 9 15 5 5 5 7 6 5 3 4 10 10 11 11 12 11 7 9 9 8 8 7 7 7 9 7 8 10 9 7 5 5 1 2 8 14
10 8 9 8 8 8 8 8 7 5 4 4 5 5 6 6 9 7 6 10 -1 -8 5 9 8 14 12 9 10 8 9 8 5 8 13 5 -3 3 6 5 5 4 4 4 5 4 2 4 8 8 6 10 13 19 21 13 15 21 19 -5 -8 17 11 1 4 3 8 6 5 6 8 9 8 14 12 11 10 6 9 7 5 6 7 7 6 7 7 8 9 8 6 3 4 -0 -0 6 7
10 9 7 7 7 6 6 7 8 6 3 3 4 6 8 8 7 7 7 8 9 7 4 7 10 11 10 8 9 7 6 5 8 15 15 2 -3 5 5 5 6 5 4 2 5 6 5 6 9 10 6 7 18 32 32 20 18 19 9 -5 5 18 4 2 6 5 10 6 6 7 8 10 12 19 14 9 6 6 10 6 5 7 7 7 6 7 7 8 7 7 7 6 8 4 3 8 7
9 8 8 7 7 8 8 8 9 8 5 7 7 7 7 7 6 8 8 8 17 8 -3 10 13 10 10 8 8 5 7 11 11 13 10 2 2 6 5 4 5 4 4 5 4 5 11 15 14 12 9 13 18 22 29 23 14 11 9 8 11 8 2 8 8 6 7 5 10 14 18 19 13 14 9 5 6 8 10 5 6 7 5 6 8 10 8 9 9 8 8 8 10 8 7 8 6
7 6 8 7 7 8 8 8 8 8 8 7 6 8 7 7 7 6 9 13 13 0 2 17 11 9 11 9 10 8 12 10 13 22 12 -1 2 6 4 4 5 6 7 6 6 3 3 13 14 10 17 25 18 10 17 17 -2 -16 -1 19 15 8 9 12 10 6 6 9 18 24 26 19 8 9 6 3 8 9 7 5 5 5 5 9 10 10 9 9 9 9 10 9 9 7 6 7 5
6 10 10 9 11 10 9 10 10 8 8 8 7 7 6 7 8 8 13 13 7 2 11 14 6 11 12 10 10 10 11 5 17 27 6 -0 8 8 5 5 6 8 9 5 7 6 2 18 24 17 28 38 36 29 21 14 -3 -16 4 25 16 9 11 11 10 9 11 15 18 18 17 11 6 9 6 4 8 5 3 5 6 8 10 12 11 10 10 8 8 9 8 8 7 6 4 5 7
8 10 8 9 9 8 9 10 9 7 6 6 5 5 6 7 7 11 13 8 4 6 12 11 10 15 11 10 10 10 10 7 18 8 -8 5 10 8 9 9 7 4 8 6 5 6 7 21 25 24 26 24 31 31 13 6 4 5 18 24 13 7 6 7 8 7 11 14 13 11 10 9 3 3 5 7 7 0 3 9 9 12 12 11 11 11 12 11 11 10 8 9 8 7 4 2 8
9 9 6 8 8 7 10 7 5 5 5 5 3 1 4 8 9 10 10 8 6 4 11 12 8 10 10 10 9 7 4 8 18 3 -3 9 4 7 10 7 7 3 5 6 5 5 8 12 9 12 12 5 11 8 5 13 12 13 22 21 10 4 4 9 11 8 9 9 9 9 8 9 3 7 10 7 7 5 7 12 11 11 10 10 11 10 12 13 13 14 13 13 10 8 7 9 13
8 7 5 6 5 5 4 2 1 1 1 0 -1 3 7 11 13 11 8 7 5 4 12 13 7 10 15 10 7 7 1 8 17 -1 -7 3 4 8 6 4 6 5 8 8 9 8 7 11 13 21 19 10 -2 -19 -1 32 29 19 19 14 5 2 6 8 8 10 11 8 9 8 8 8 8 16 10 0 7 11 11 11 8 9 9 8 9 10 13 14 14 15 15 15 15 13 13 12 11
6 4 6 5 4 9 9 3 -1 0 5 -0 -1 9 13 17 19 13 6 1 3 6 9 10 8 10 12 8 8 8 3 11 11 -4 1 14 12 5 1 4 6 7 11 9 10 13 14 15 24 35 25 15 10 -2 6 25 29 23 14 6 3 3 4 3 5 11 10 6 7 6 9 10 10 13 4 -0 7 9 8 5 4 7 6 5 7 10 14 15 15 14 13 14 13 12 10 7 7
6 4 7 6 6 14 14 9 3 5 11 4 5 10 10 21 29 24 10 1 3 8 13 16 12 7 6 8 13 12 7 11 8 8 20 17 7 6 6 7 8 10 10 9 8 11 17 15 18 21 9 10 22 18 8 6 15 19 10 5 7 6 2 5 9 9 6 6 7 7 10 9 9 9 3 2 4 4 5 3 9 10 4 6 6 8 11 10 13 13 11 11 11 11 12 12 16
3 1 6 8 11 12 12 15 13 13 14 9 11 8 7 12 9 6 -0 -3 5 11 15 14 14 13 8 9 14 10 5 6 8 15 15 3 0 4 8 13 14 11 7 11 16 15 16 15 12 6 3 14 15 7 7 12 18 17 9 6 8 8 6 11 12 7 6 6 9 10 9 9 8 8 2 -1 3 6 7 8 15 6 -0 8 8 9 10 6 10 11 10 12 14 15 17 17 16
5 6 5 5 9 6 4 11 10 10 6 7 12 8 15 12 -4 -0 -2 -4 6 7 2 3 10 14 11 9 8 7 10 11 9 11 3 -5 -0 1 7 15 10 11 14 14 18 18 15 11 8 6 9 19 18 16 18 13 11 12 8 1 2 4 4 11 8 4 6 6 10 8 6 8 3 1 -0 0 7 8 7 12 11 -1 2 13 11 10 9 5 8 9 9 10 10 9 10 11 8
13 16 12 13 21 13 2 2 9 13 1 1 6 1 13 12 -1 8 6 -1 8 6 0 5 7 10 13 7 6 7 5 9 7 8 8 1 16 32 30 21 7 6 12 11 15 16 14 11 10 10 12 15 16 16 8 -3 -3 4 5 2 4 5 1 7 5 -1 5 6 6 3 1 5 2 1 4 5 9 7 9 17 9 -1 9 15 12 11 7 7 8 7 9 6 4 6 6 6 5
15 13 10 15 22 24 15 -4 -4 8 2 5 8 3 15 18 4 3 3 -0 5 7 5 5 5 11 15 8 13 8 4 32 25 -2 4 9 32 52 33 23 21 10 5 9 15 14 10 10 11 9 7 13 13 5 -1 -4 -1 3 6 5 7 7 1 4 7 4 7 5 1 2 2 6 6 6 6 6 10 10 12 21 12 1 8 12 12 9 6 10 8 8 13 6 5 10 10 7 5
10 -4 -2 8 6 16 20 -3 -8 5 6 12 17 14 16 16 7 -1 -0 -1 -4 4 10 11 11 12 13 8 12 4 7 40 14 -25 -4 13 29 38 11 9 18 9 4 -1 -2 4 8 8 10 7 1 5 5 1 4 2 2 6 6 7 8 9 3 -0 4 5 8 7 4 6 5 5 9 7 8 10 13 14 15 16 5 -1 9 14 12 7 5 10 6 9 16 8 7 11 9 7 5
3 -15 -13 1 -3 7 19 6 5 10 8 8 2 -1 7 15 14 -0 4 12 -1 -2 9 14 14 12 13 10 8 6 5 9 -11 -16 12 18 25 27 3 -4 2 1 -0 -2 3 11 11 5 5 6 3 5 4 5 9 3 4 6 4 7 7 4 2 2 7 7 7 8 7 9 7 5 8 8 8 9 8 13 13 3 -5 3 14 12 10 10 7 8 5 8 12 6 6 7 5 6 4
8 -4 -10 -6 -12 -8 4 6 4 -4 -2 7 1 -2 6 14 14 0 10 24 1 -12 5 16 15 12 15 13 7 8 5 2 3 7 9 12 24 22 0 -10 -5 -2 -2 9 19 10 5 7 9 13 11 10 7 6 16 17 7 -1 -2 -0 -1 2 6 7 13 14 10 7 6 7 8 8 7 6 9 11 10 10 5 -1 2 13 13 6 9 11 5 4 5 6 5 2 3 3 4 6 4
10 4 4 12 7 -8 -11 0 6 -1 3 21 33 34 21 14 19 9 7 16 4 -6 3 13 15 9 9 12 9 9 6 3 6 7 5 9 17 18 8 -8 -14 -9 0 15 15 3 6 9 7 12 13 12 7 4 18 22 3 -6 3 0 -8 2 10 3 2 6 5 4 6 6 7 11 7 5 12 14 11 5 0 6 13 12 7 5 8 9 5 4 6 5 4 4 6 7 8 10 9
11 7 10 16 17 7 1 6 7 6 8 0 -2 2 0 9 19 13 8 12 13 8 3 8 15 12 9 11 12 12 10 3 0 7 14 12 9 13 9 -10 -24 -20 5 17 2 -1 6 -1 -5 -0 5 7 5 9 17 15 4 3 15 9 -5 -1 8 7 2 2 3 3 7 6 2 4 4 9 12 6 5 5 5 11 11 6 5 7 6 6 6 4 5 6 6 7 8 10 12 13 14
8 7 10 11 14 14 12 7 -5 -1 13 3 -4 5 14 19 11 6 11 11 14 17 10 5 5 8 10 10 14 14 8 6 5 3 11 13 10 8 4 3 -4 -15 7 20 -2 -3 5 0 -0 -2 0 2 -2 5 9 6 10 14 16 11 5 6 8 9 6 3 5 4 5 6 6 6 5 9 9 2 4 8 9 10 7 6 6 5 5 5 4 3 5 6 6 8 9 10 12 12 12
8 9 11 9 10 8 9 12 -3 -4 15 14 11 17 17 16 14 17 18 12 23 30 16 9 13 23 23 10 14 17 6 7 7 -1 7 12 7 8 4 14 20 -9 -7 13 -1 -1 8 8 10 3 5 12 6 9 6 -1 6 12 15 11 7 11 10 11 8 2 5 7 7 8 12 13 10 10 11 9 11 9 8 8 5 6 7 5 5 5 5 6 7 7 7 9 10 11 11 10 10
10 12 10 8 14 13 12 17 -5 -23 -12 -9 -6 3 2 2 8 15 11 5 20 25 16 20 24 24 22 11 12 16 7 7 8 1 7 9 7 17 8 12 26 -6 -19 8 4 -1 6 7 13 7 6 10 4 7 7 4 11 12 10 10 5 5 9 13 11 4 4 9 12 10 8 10 12 15 14 9 6 7 8 8 7 7 7 7 7 7 10 11 9 10 11 11 11 11 10 10 11
9 11 7 6 28 35 21 23 18 1 -7 -7 5 16 11 8 13 16 13 5 7 12 13 11 -4 -7 10 15 16 19 12 11 12 5 7 10 12 19 10 14 27 -1 -11 11 5 -1 5 2 6 5 7 11 5 12 16 7 11 10 3 8 7 4 9 12 7 5 8 8 8 9 10 12 11 13 18 10 4 8 8 6 8 7 7 7 7 8 11 12 13 13 13 12 10 9 9 9 10
8 11 0 -15 -0 15 4 8 28 27 9 4 19 22 6 2 12 17 15 8 1 6 14 7 -10 -6 10 9 8 16 12 9 12 9 9 12 14 14 9 14 21 6 4 11 1 3 8 4 9 8 12 22 10 13 28 22 17 15 9 14 12 7 9 8 5 5 6 4 4 8 11 9 2 7 17 11 2 7 10 7 7 6 7 7 7 10 12 13 16 14 11 8 8 8 7 7 8
9 12 7 -7 -6 9 11 8 11 6 -6 -1 16 22 12 3 2 4 3 4 5 3 5 7 1 1 10 10 10 12 5 5 10 9 9 10 12 12 7 11 15 8 9 14 10 13 12 9 14 10 16 30 7 -19 -5 14 17 14 12 16 19 16 9 6 9 8 4 6 11 12 9 3 2 10 15 1 -5 5 10 9 9 8 8 9 9 12 14 14 15 11 8 7 6 6 6 5 6
7 11 10 5 -1 2 12 15 10 0 -5 4 13 14 14 8 3 4 2 4 13 13 8 8 1 -6 4 14 14 11 5 4 6 8 10 8 6 9 6 8 12 8 9 13 9 8 11 11 11 8 12 28 23 -4 -11 2 8 6 2 5 16 22 13 7 11 11 8 7 9 10 6 2 7 16 13 -1 1 12 12 6 7 8 9 11 12 12 12 12 10 8 8 8 6 6 6 7 7
4 7 10 8 -0 -6 3 13 15 10 6 14 18 13 11 8 4 4 4 2 7 14 14 9 -3 -10 2 14 14 15 10 5 6 10 12 9 10 16 15 12 11 10 8 6 3 2 7 11 8 8 13 17 20 18 12 10 11 10 4 -0 6 12 10 10 12 13 10 8 11 13 9 5 8 11 6 1 8 14 10 6 7 8 10 12 12 10 9 9 8 8 8 8 10 9 9 10 10
13 15 12 11 11 4 5 11 12 9 9 17 21 15 7 4 6 7 10 10 4 6 11 12 6 2 10 15 12 13 11 8 12 10 9 12 13 17 24 22 15 12 7 0 5 7 5 9 6 5 14 14 10 15 18 12 9 10 8 4 3 4 5 9 14 15 9 8 13 13 10 10 11 10 5 5 12 12 7 6 6 8 10 11 10 9 9 8 8 9 9 9 12 12 11 11 9
18 25 17 10 15 16 12 9 11 10 8 9 11 14 11 5 6 10 14 15 7 3 8 15 15 8 10 13 9 8 8 9 12 12 17 21 16 19 29 26 12 8 9 3 4 8 5 6 7 3 8 10 6 13 16 6 1 6 8 6 5 6 5 5 13 17 11 12 15 11 10 12 12 13 9 8 12 10 6 4 5 8 10 9 9 9 8 8 8 9 9 9 8 6 7 6 4
7 17 14 6 8 13 9 1 4 9 10 8 6 11 14 7 -1 0 8 13 8 8 13 17 16 10 10 15 12 7 6 9 11 14 23 25 23 26 25 23 17 5 4 7 4 6 6 3 5 4 5 7 6 10 14 4 -2 4 8 6 5 7 8 3 7 14 13 15 16 12 14 15 11 11 9 7 8 6 5 5 6 8 9 9 9 8 8 8 7 6 5 5 2 -1 1 3 4
4 14 18 13 7 8 9 5 6 5 3 10 13 7 6 9 8 5 8 11 12 15 14 14 18 15 10 13 14 10 10 16 20 22 25 23 26 26 14 19 31 14 2 9 7 2 4 3 -0 -2 -0 5 6 10 13 4 -4 3 8 6 5 7 9 6 6 11 12 11 15 19 21 16 9 9 9 6 4 2 2 3 6 8 9 9 8 7 8 7 5 4 2 2 2 -0 1 4 5
-4 5 19 20 11 7 7 5 10 13 5 2 7 4 3 13 16 10 6 9 18 21 15 13 17 15 10 11 13 11 9 10 9 14 21 22 25 24 14 12 21 17 10 11 8 3 5 6 3 2 0 -2 1 8 10 3 -0 9 11 5 4 8 11 12 14 16 10 8 18 24 17 7 1 5 10 7 5 5 4 3 3 6 9 9 8 7 7 6 4 2 0 2 4 5 7 8 8
-4 -7 4 11 9 9 10 5 1 8 8 4 8 11 11 10 3 3 9 11 14 16 15 12 10 12 13 13 10 7 10 17 12 5 7 13 14 12 13 9 5 16 20 10 5 2 3 9 11 10 -0 -7 3 11 6 3 5 10 14 9 5 6 8 11 17 17 10 13 19 12 7 11 12 11 11 7 5 6 10 10 4 6 11 10 8 9 6 5 4 1 1 5 7 9 10 10 10
13 -2 -8 0 6 5 12 19 14 9 6 4 8 8 7 6 2 6 12 9 10 16 20 15 8 9 12 17 20 6 2 18 21 7 3 13 10 -1 8 15 9 14 16 9 10 8 3 8 11 10 4 5 24 24 6 5 8 7 12 13 8 6 4 5 13 17 15 19 17 2 2 16 21 19 15 8 5 9 16 16 8 9 14 11 9 9 7 5 4 2 4 7 8 9 10 10 10
20 12 -2 -1 4 -1 -3 3 7 12 10 5 8 8 5 6 8 11 8 5 13 21 24 20 12 7 5 14 24 8 -3 9 12 4 4 11 6 -8 2 19 12 6 7 7 12 10 6 7 5 8 10 15 30 29 10 8 9 3 5 9 10 8 3 4 12 17 14 11 6 2 5 9 11 15 13 13 18 22 22 16 11 13 13 10 10 9 7 6 5 5 5 6 7 9 9 8 6
16 21 15 5 3 5 6 2 0 7 8 2 6 14 17 11 7 13 12 7 11 12 18 23 13 5 4 10 17 10 3 5 3 2 4 6 5 -2 6 22 16 5 5 7 10 9 8 9 5 9 15 15 17 15 10 8 5 4 8 12 12 7 6 11 14 13 11 6 4 8 10 8 9 11 12 19 22 17 12 9 10 11 9 8 9 8 8 7 4 5 5 5 8 9 8 4 2
Height
5851 5851 5852 5852 5853 5854 5854 5855 5855 5855 5856 5857 5859 5859 5860 5859 5859 5859 5859 5857 5858 5861 5860 5864 5863 5862 5862 5861 5861 5861 5859 5858 5859 5860 5858 5858 5858 5858 5859 5860 5863 5862 5859 5859 5858 5858 5858 5858 5858 5858 5858 5858 5858 5858 5858 5857 5857 5857 5857 5857 5856 5856 5857 5856 5856 5855 5855 5854 5854 5853 5853 5852 5851 5850 5850 5849 5849 5848 5847 5847 5847 5846 5845 5845 5844 5844 5843 5842 5841 5841 5840 5840 5839 5839 5839 5839 5838
5849 5849 5850 5850 5851 5851 5852 5853 5853 5853 5855 5857 5858 5857 5857 5856 5857 5857 5856 5854 5856 5859 5860 5862 5861 5860 5860 5859 5859 5858 5856 5856 5858 5857 5857 5857 5857 5857 5858 5858 5860 5859 5857 5856 5856 5856 5856 5856 5856 5856 5856 5856 5856 5856 5856 5855 5855 5855 5855 5855 5855 5855 5855 5856 5855 5854 5854 5853 5853 5852 5852 5851 5850 5850 5849 5848 5848 5848 5847 5846 5846 5846 5845 5844 5844 5843 5843 5842 5841 5840 5840 5839 5839 5839 5839 5839 5838
5846 5847 5848 5848 5849 5849 5850 5851 5851 5852 5853 5855 5857 5856 5856 5855 5853 5853 5853 5854 5855 5857 5858 5859 5858 5858 5858 5857 5857 5855 5853 5855 5856 5855 5855 5856 5855 5856 5856 5855 5856 5856 5854 5854 5854 5853 5853 5853 5853 5853 5853 5853 5853 5853 5854 5854 5854 5854 5854 5854 5854 5854 5854 5854 5854 5854 5853 5852 5852 5851 5851 5850 5849 5849 5848 5848 5847 5847 5846 5846 5845 5845 5844 5844 5843 5843 5842 5841 5841 5840 5840 5839 5839 5838 5839 5839 5839
5844 5845 5845 5846 5847 5847 5848 5849 5850 5851 5851 5853 5856 5856 5855 5851 5849 5850 5852 5854 5854 5855 5856 5856 5856 5856 5856 5855 5854 5853 5852 5853 5853 5854 5854 5853 5853 5853 5854 5853 5853 5853 5852 5851 5851 5850 5850 5850 5850 5851 5851 5851 5851 5851 5852 5852 5852 5852 5853 5853 5853 5853 5853 5853 5853 5852 5852 5852 5851 5851 5850 5849 5849 5848 5848 5847 5847 5846 5846 5845 5845 5844 5844 5843 5842 5842 5842 5841 5840 5840 5840 5839 5839 5838 5839 5839 5839
5842 5842 5843 5844 5844 5845 5846 5847 5848 5849 5850 5852 5854 5854 5851 5847 5847 5849 5851 5852 5853 5853 5854 5854 5854 5853 5854 5853 5853 5851 5851 5851 5852 5852 5851 5851 5851 5851 5851 5851 5850 5850 5849 5848 5848 5847 5847 5847 5848 5848 5849 5849 5849 5849 5850 5850 5851 5851 5852 5852 5852 5852 5853 5852 5852 5851 5851 5851 5850 5850 5849 5848 5848 5847 5847 5847 5846 5846 5845 5845 5844 5844 5843 5842 5842 5842 5841 5841 5840 5840 5839 5839 5839 5839 5839 5839 5839
5839 5840 5841 5841 5842 5843 5844 5845 5846 5847 5848 5850 5852 5850 5846 5845 5846 5848 5850 5851 5851 5851 5852 5852 5852 5852 5851 5852 5852 5850 5849 5849 5849 5849 5849 5848 5849 5848 5848 5848 5847 5846 5845 5844 5843 5843 5843 5844 5845 5846 5846 5846 5847 5848 5848 5849 5850 5850 5851 5851 5852 5852 5852 5852 5851 5850 5850 5850 5849 5849 5848 5848 5847 5847 5846 5846 5845 5845 5845 5844 5844 5843 5842 5842 5842 5841 5841 5840 5840 5840 5839 5839 5839 5839 5839 5838 5838
5837 5837 5838 5839 5840 5841 5842 5843 5844 5845 5846 5847 5849 5846 5841 5844 5846 5848 5849 5849 5849 5849 5850 5851 5851 5850 5849 5849 5850 5849 5848 5848 5847 5847 5847 5846 5846 5846 5845 5844 5843 5842 5840 5839 5838 5837 5839 5841 5843 5844 5844 5844 5845 5846 5847 5848 5849 5850 5850 5851 5851 5851 5851 5850 5850 5849 5849 5848 5848 5848 5847 5847 5846 5846 5845 5845 5845 5844 5844 5843 5843 5842 5842 5841 5841 5841 5840 5840 5840 5840 5839 5839 5839 5839 5838 5838 5838
5834 5835 5836 5837 5837 5839 5840 5841 5842 5843 5843 5844 5844 5842 5840 5843 5845 5847 5848 5847 5847 5847 5847 5848 5849 5849 5847 5847 5848 5848 5846 5846 5846 5845 5845 5844 5843 5842 5841 5840 5838 5836 5834 5832 5830 5832 5836 5839 5841 5842 5842 5843 5845 5846 5847 5848 5848 5849 5849 5850 5850 5849 5849 5848 5848 5848 5847 5847 5847 5847 5847 5846 5845 5845 5844 5844 5844 5843 5843 5842 5842 5842 5841 5841 5840 5840 5840 5840 5839 5839 5839 5839 5839 5839 5838 5838 5838
5832 5832 5833 5834 5835 5836 5837 5838 5840 5840 5842 5841 5838 5840 5842 5841 5842 5844 5846 5845 5845 5845 5845 5846 5847 5846 5844 5846 5846 5845 5843 5844 5844 5842 5841 5840 5839 5838 5837 5835 5831 5830 5828 5827 5828 5830 5836 5839 5840 5841 5842 5843 5844 5845 5846 5846 5847 5847 5848 5848 5848 5847 5847 5847 5846 5846 5846 5846 5846 5846 5845 5845 5844 5844 5843 5843 5843 5843 5842 5842 5841 5841 5840 5840 5840 5840 5839 5839 5839 5839 5839 5839 5838 5838 5838 5838 5838
5829 5830 5831 5832 5832 5834 5835 5837 5837 5838 5840 5837 5834 5839 5841 5840 5840 5842 5843 5843 5843 5844 5843 5843 5845 5843 5842 5844 5844 5841 5840 5839 5840 5839 5837 5836 5835 5834 5833 5831 5828 5827 5828 5831 5834 5835 5837 5838 5839 5840 5841 5841 5842 5842 5843 5844 5845 5845 5846 5846 5846 5845 5845 5845 5845 5845 5845 5845 5844 5844 5844 5843 5843 5843 5842 5842 5842 5842 5841 5841 5840 5840 5839 5839 5839 5839 5839 5838 5838 5838 5838 5838 5838 5838 5838 5838 5838
5826 5827 5828 5829 5830 5831 5833 5834 5835 5838 5837 5832 5833 5836 5837 5839 5840 5840 5839 5840 5842 5841 5841 5841 5842 5840 5840 5842 5839 5839 5839 5836 5838 5839 5838 5838 5836 5833 5833 5833 5832 5830 5831 5834 5837 5836 5836 5836 5837 5837 5838 5838 5839 5840 5841 5842 5843 5843 5844 5843 5843 5843 5843 5843 5843 5843 5843 5843 5843 5842 5842 5842 5842 5841 5841 5841 5841 5841 5840 5839 5839 5838 5838 5838 5838 5838 5838 5838 5838 5838 5838 5838 5838 5838 5838 5838 5838
5823 5824 5826 5826 5828 5829 5830 5832 5834 5838 5835 5829 5831 5831 5834 5839 5838 5838 5837 5838 5840 5838 5838 5839 5839 5837 5838 5839 5837 5839 5837 5835 5838 5838 5838 5837 5835 5833 5833 5833 5833 5832 5832 5834 5834 5834 5834 5834 5835 5835 5836 5837 5837 5838 5839 5840 5841 5841 5841 5841 5841 5841 5841 5841 5842 5841 5841 5841 5841 5841 5840 5840 5840 5840 5840 5840 5840 5840 5839 5838 5837 5837 5837 5837 5837 5837 5837 5837 5837 5837 5837 5837 5837 5837 5838 5838 5838
5821 5822 5823 5824 5825 5827 5828 5829 5831 5835 5831 5827 5827 5827 5833 5837 5834 5836 5836 5836 5837 5836 5835 5836 5836 5835 5836 5836 5836 5838 5836 5835 5837 5834 5832 5831 5831 5830 5829 5830 5832 5832 5832 5833 5833 5833 5834 5834 5835 5835 5836 5836 5836 5837 5838 5838 5838 5839 5839 5839 5839 5839 5839 5839 5840 5839 5839 5839 5839 5839 5839 5839 5839 5839 5839 5839 5839 5838 5838 5837 5836 5836 5836 5836 5836 5836 5836 5836 5836 5836 5837 5836 5837 5837 5837 5838 5838
5819 5819 5820 5821 5823 5824 5825 5827 5828 5831 5829 5825 5824 5824 5831 5833 5832 5834 5833 5834 5834 5833 5834 5834 5834 5833 5834 5834 5834 5836 5835 5835 5833 5830 5830 5831 5831 5827 5826 5831 5833 5832 5831 5831 5831 5832 5833 5833 5833 5833 5833 5833 5834 5835 5836 5837 5836 5836 5836 5836 5836 5836 5837 5837 5837 5837 5837 5837 5837 5838 5838 5838 5838 5838 5838 5838 5837 5837 5836 5835 5835 5834 5834 5835 5835 5835 5835 5835 5835 5836 5836 5836 5836 5836 5837 5837 5837
5816 5817 5818 5819 5821 5822 5823 5825 5826 5828 5826 5822 5821 5822 5828 5830 5831 5832 5830 5832 5832 5831 5832 5831 5831 5831 5832 5832 5833 5834 5833 5832 5829 5829 5830 5830 5830 5826 5825 5829 5830 5829 5829 5828 5828 5829 5830 5831 5830 5831 5831 5830 5832 5833 5834 5834 5833 5833 5832 5832 5833 5833 5834 5834 5835 5835 5835 5835 5836 5836 5836 5837 5837 5837 5837 5836 5836 5836 5835 5834 5833 5833 5833 5834 5834 5834 5834 5834 5834 5835 5835 5835 5835 5835 5836 5836 5837
5814 5815 5816 5817 5819 5820 5822 5823 5824 5826 5822 5818 5819 5821 5826 5827 5828 5829 5828 5830 5829 5828 5828 5828 5830 5830 5829 5829 5831 5830 5829 5828 5826 5829 5829 5827 5828 5826 5825 5825 5826 5826 5827 5827 5826 5827 5828 5828 5828 5829 5830 5830 5831 5831 5831 5830 5829 5829 5829 5829 5830 5830 5831 5832 5833 5833 5833 5833 5834 5835 5835 5835 5836 5836 5835 5835 5835 5834 5834 5833 5832 5832 5832 5832 5833 5833 5833 5834 5834 5834 5834 5834 5835 5835 5835 5835 5836
5811 5813 5814 5815 5817 5818 5820 5821 5821 5822 5818 5816 5817 5820 5825 5825 5825 5825 5826 5828 5827 5824 5824 5827 5829 5828 5826 5826 5828 5827 5825 5824 5825 5827 5826 5826 5825 5824 5824 5824 5824 5825 5825 5826 5825 5825 5826 5827 5827 5828 5829 5829 5829 5829 5828 5827 5826 5826 5826 5826 5827 5827 5828 5830 5831 5831 5831 5832 5832 5833 5834 5834 5834 5834 5834 5834 5834 5833 5833 5832 5831 5831 5831 5831 5832 5832 5832 5833 5833 5833 5833 5833 5834 5834 5834 5835 5835
5809 5810 5812 5814 5815 5816 5817 5816 5816 5816 5815 5815 5815 5820 5823 5822 5823 5822 5823 5825 5824 5822 5821 5825 5826 5823 5823 5823 5825 5825 5824 5822 5823 5824 5824 5823 5823 5822 5823 5822 5823 5823 5824 5824 5823 5823 5824 5824 5825 5825 5826 5827 5827 5827 5825 5824 5823 5823 5823 5823 5823 5824 5825 5827 5828 5829 5829 5830 5831 5832 5832 5832 5832 5832 5832 5832 5832 5832 5832 5831 5830 5830 5830 5830 5830 5831 5831 5832 5832 5832 5832 5832 5833 5833 5833 5834 5834
5806 5808 5809 5811 5812 5813 5812 5811 5813 5812 5813 5815 5814 5818 5820 5820 5821 5818 5820 5822 5821 5821 5818 5821 5823 5820 5820 5821 5823 5823 5823 5821 5820 5822 5821 5821 5821 5821 5821 5820 5821 5821 5821 5821 5820 5821 5821 5821 5822 5822 5822 5823 5825 5824 5823 5821 5820 5820 5820 5820 5820 5821 5823 5825 5826 5826 5827 5828 5829 5830 5831 5831 5831 5831 5831 5831 5831 5831 5831 5831 5830 5829 5829 5829 5829 5830 5830 5831 5831 5831 5831 5831 5832 5832 5833 5833 5834
5804 5806 5807 5809 5809 5809 5808 5809 5810 5810 5812 5814 5813 5814 5816 5818 5817 5815 5819 5820 5818 5818 5816 5815 5817 5818 5818 5819 5820 5820 5820 5819 5818 5819 5819 5818 5818 5818 5818 5818 5818 5818 5818 5818 5818 5817 5818 5818 5819 5819 5818 5820 5822 5821 5820 5818 5817 5817 5819 5819 5818 5819 5821 5822 5823 5824 5825 5826 5827 5829 5828 5829 5829 5829 5830 5829 5830 5830 5830 5830 5829 5828 5828 5828 5828 5828 5829 5829 5829 5829 5830 5830 5830 5831 5832 5832 5833
5801 5803 5804 5805 5805 5804 5805 5807 5808 5809 5811 5812 5811 5811 5813 5814 5813 5814 5818 5817 5815 5814 5813 5811 5813 5817 5818 5817 5817 5817 5818 5816 5815 5816 5815 5816 5816 5816 5815 5815 5815 5814 5814 5815 5815 5814 5814 5815 5816 5816 5816 5817 5819 5818 5816 5815 5815 5816 5817 5817 5817 5818 5819 5820 5821 5822 5823 5824 5825 5826 5826 5826 5827 5827 5828 5828 5828 5828 5828 5828 5828 5827 5827 5827 5827 5827 5827 5828 5828 5828 5828 5829 5829 5830 5831 5831 5832
5798 5801 5801 5801 5802 5802 5804 5805 5806 5809 5809 5809 5809 5809 5810 5811 5811 5813 5815 5814 5812 5810 5810 5810 5811 5816 5816 5814 5814 5814 5814 5813 5812 5812 5812 5813 5815 5814 5813 5812 5812 5811 5811 5812 5812 5812 5811 5812 5813 5814 5814 5815 5815 5814 5813 5814 5815 5815 5814 5815 5816 5817 5818 5819 5820 5821 5822 5822 5823 5824 5824 5824 5825 5825 5825 5826 5826 5826 5827 5827 5827 5827 5827 5826 5826 5826 5826 5826 5826 5827 5827 5828 5829 5829 5830 5830 5831
5796 5798 5799 5798 5799 5801 5801 5802 5804 5806 5806 5806 5806 5807 5808 5809 5809 5810 5811 5812 5810 5808 5808 5807 5809 5814 5813 5811 5812 5811 5810 5810 5808 5808 5808 5810 5812 5811 5809 5810 5810 5809 5809 5809 5808 5808 5809 5809 5810 5812 5812 5812 5812 5810 5810 5812 5813 5813 5813 5814 5816 5816 5816 5818 5818 5819 5820 5821 5822 5822 5822 5822 5823 5823 5824 5825 5825 5825 5826 5826 5826 5826 5826 5825 5824 5824 5824 5825 5825 5825 5826 5826 5827 5828 5828 5829 5830
5793 5795 5795 5796 5796 5798 5799 5799 5801 5803 5803 5804 5804 5805 5806 5806 5807 5807 5807 5808 5810 5808 5805 5804 5807 5810 5809 5808 5808 5807 5806 5806 5805 5805 5806 5808 5808 5808 5807 5807 5807 5807 5807 5806 5805 5805 5806 5806 5808 5810 5810 5809 5809 5807 5807 5809 5810 5812 5813 5814 5814 5814 5815 5816 5816 5817 5818 5818 5820 5820 5820 5820 5821 5822 5822 5823 5824 5825 5825 5825 5825 5825 5824 5824 5823 5823 5823 5823 5823 5823 5824 5825 5825 5826 5827 5828 5829
5791 5791 5792 5793 5794 5795 5796 5797 5799 5799 5800 5801 5802 5803 5803 5804 5804 5805 5804 5806 5808 5805 5802 5803 5804 5806 5806 5805 5804 5803 5803 5802 5801 5802 5804 5805 5805 5805 5805 5805 5805 5805 5805 5804 5803 5803 5802 5803 5805 5807 5806 5806 5805 5804 5804 5806 5808 5811 5811 5812 5812 5813 5814 5814 5814 5815 5815 5816 5817 5817 5817 5818 5819 5820 5821 5821 5822 5823 5823 5823 5823 5823 5823 5823 5822 5822 5822 5822 5822 5822 5822 5823 5824 5825 5826 5826 5827
5788 5789 5790 5791 5792 5793 5794 5795 5796 5797 5798 5799 5799 5800 5801 5801 5801 5802 5803 5803 5803 5800 5800 5802 5801 5803 5803 5801 5801 5801 5800 5800 5800 5801 5801 5801 5803 5804 5804 5804 5803 5803 5803 5802 5802 5801 5800 5801 5803 5803 5803 5802 5801 5801 5802 5804 5807 5809 5809 5810 5811 5811 5812 5813 5813 5813 5813 5813 5814 5815 5815 5816 5817 5818 5819 5819 5820 5820 5821 5821 5821 5821 5821 5821 5821 5821 5821 5821 5821 5821 5821 5821 5822 5823 5824 5825 5825
5785 5786 5787 5788 5789 5790 5791 5793 5793 5794 5795 5796 5797 5797 5798 5799 5799 5799 5800 5800 5798 5796 5799 5800 5799 5801 5800 5798 5798 5798 5799 5799 5799 5800 5799 5799 5801 5802 5802 5802 5802 5801 5801 5801 5800 5799 5798 5799 5801 5801 5800 5798 5797 5798 5800 5803 5807 5808 5807 5808 5808 5809 5810 5811 5812 5812 5811 5811 5812 5813 5813 5814 5814 5815 5816 5817 5817 5818 5818 5819 5819 5819 5819 5820 5820 5820 5820 5820 5820 5820 5820 5820 5821 5822 5822 5823 5823
5783 5784 5785 5786 5787 5788 5789 5790 5791 5792 5793 5793 5794 5795 5795 5796 5796 5797 5797 5796 5794 5795 5797 5797 5796 5798 5797 5796 5797 5797 5798 5798 5798 5800 5798 5797 5799 5800 5800 5800 5800 5799 5799 5799 5798 5797 5797 5798 5799 5800 5798 5797 5797 5799 5801 5803 5805 5806 5805 5805 5806 5805 5807 5809 5810 5810 5809 5810 5811 5812 5813 5813 5813 5813 5814 5814 5815 5816 5817 5817 5817 5818 5818 5818 5819 5819 5819 5819 5819 5819 5819 5820 5820 5820 5821 5821 5822
5780 5782 5783 5783 5785 5785 5787 5788 5788 5789 5790 5791 5791 5792 5793 5793 5794 5794 5793 5792 5790 5792 5796 5794 5793 5794 5795 5794 5795 5796 5796 5796 5797 5799 5797 5795 5797 5797 5797 5797 5797 5797 5796 5796 5797 5796 5796 5797 5799 5800 5799 5799 5800 5801 5802 5802 5802 5803 5802 5803 5803 5803 5805 5807 5808 5808 5808 5809 5809 5811 5812 5812 5812 5811 5812 5813 5814 5815 5816 5816 5816 5816 5817 5817 5817 5817 5818 5818 5818 5818 5818 5819 5819 5819 5820 5820 5820
5778 5779 5780 5781 5782 5783 5784 5785 5785 5787 5787 5787 5788 5789 5790 5790 5791 5791 5791 5790 5787 5790 5794 5792 5791 5792 5793 5793 5793 5793 5793 5793 5794 5796 5796 5794 5794 5795 5795 5795 5795 5795 5794 5794 5795 5794 5795 5796 5798 5799 5799 5800 5801 5800 5800 5799 5799 5800 5800 5801 5802 5802 5804 5806 5806 5807 5807 5808 5808 5809 5809 5809 5809 5809 5809 5812 5813 5814 5814 5815 5815 5815 5816 5816 5816 5816 5816 5817 5817 5817 5817 5817 5818 5818 5818 5819 5819
5775 5777 5778 5779 5780 5780 5782 5782 5783 5784 5784 5784 5785 5787 5787 5787 5787 5787 5789 5788 5785 5789 5790 5790 5790 5790 5790 5790 5789 5790 5791 5791 5791 5792 5793 5792 5793 5793 5793 5794 5793 5793 5792 5793 5793 5793 5794 5795 5796 5796 5797 5798 5798 5798 5799 5797 5797 5798 5800 5801 5802 5802 5802 5803 5804 5805 5806 5806 5806 5806 5806 5807 5808 5808 5809 5811 5813 5813 5813 5813 5813 5814 5814 5815 5814 5815 5815 5815 5815 5815 5816 5816 5817 5817 5818 5818 5818
5773 5774 5775 5777 5778 5778 5779 5778 5779 5781 5781 5780 5783 5785 5785 5785 5786 5784 5784 5783 5784 5787 5787 5787 5788 5787 5787 5786 5787 5788 5788 5788 5789 5790 5791 5790 5791 5791 5791 5791 5791 5790 5790 5791 5792 5792 5794 5794 5793 5793 5795 5796 5795 5796 5797 5797 5795 5796 5799 5801 5801 5801 5801 5802 5803 5803 5803 5804 5803 5804 5805 5806 5808 5809 5809 5811 5812 5813 5812 5812 5812 5812 5813 5813 5813 5813 5813 5814 5814 5814 5815 5816 5816 5817 5817 5817 5817
5770 5772 5774 5775 5776 5777 5778 5775 5775 5779 5778 5777 5779 5783 5783 5783 5785 5785 5781 5780 5782 5785 5785 5785 5784 5784 5785 5784 5785 5786 5786 5787 5789 5789 5789 5789 5789 5789 5788 5788 5787 5787 5787 5789 5790 5791 5792 5791 5791 5791 5793 5794 5794 5795 5796 5796 5794 5794 5798 5800 5801 5800 5801 5801 5802 5802 5801 5801 5802 5803 5805 5806 5807 5808 5810 5811 5812 5812 5812 5812 5812 5812 5812 5812 5812 5813 5812 5812 5813 5814 5815 5815 5816 5815 5815 5815 5815
5768 5770 5772 5773 5774 5776 5779 5776 5773 5775 5774 5774 5776 5779 5781 5781 5782 5783 5779 5779 5781 5782 5783 5783 5782 5782 5782 5781 5782 5783 5783 5785 5786 5786 5786 5785 5785 5784 5783 5783 5783 5784 5784 5786 5788 5789 5789 5789 5788 5789 5791 5791 5792 5793 5794 5795 5794 5793 5795 5798 5800 5800 5800 5800 5800 5800 5800 5801 5802 5802 5804 5805 5806 5807 5809 5810 5810 5810 5810 5810 5810 5811 5811 5811 5811 5812 5812 5812 5812 5813 5814 5814 5815 5815 5815 5815 5815
5767 5768 5769 5770 5772 5774 5778 5777 5773 5772 5770 5771 5773 5775 5778 5779 5779 5780 5777 5777 5780 5780 5780 5781 5781 5781 5779 5777 5778 5778 5779 5780 5781 5782 5782 5783 5783 5781 5777 5777 5778 5780 5782 5784 5786 5787 5787 5787 5787 5786 5787 5788 5789 5791 5792 5793 5793 5792 5792 5795 5797 5797 5798 5799 5798 5798 5800 5800 5801 5801 5802 5802 5804 5806 5807 5808 5808 5808 5808 5808 5808 5809 5810 5810 5810 5810 5811 5811 5811 5812 5813 5814 5814 5814 5814 5815 5814
5765 5767 5769 5770 5770 5771 5775 5776 5772 5771 5769 5767 5769 5772 5775 5776 5777 5778 5775 5774 5776 5777 5778 5779 5779 5780 5778 5775 5775 5774 5775 5776 5777 5779 5781 5784 5787 5785 5781 5775 5773 5775 5779 5782 5783 5784 5784 5784 5784 5783 5784 5785 5786 5787 5788 5789 5791 5791 5791 5791 5793 5795 5796 5797 5796 5796 5798 5800 5799 5800 5800 5800 5801 5803 5804 5805 5806 5806 5806 5806 5807 5808 5808 5809 5809 5809 5809 5809 5810 5812 5813 5813 5813 5814 5814 5814 5814
5761 5765 5768 5769 5768 5769 5772 5774 5771 5770 5769 5766 5765 5769 5771 5773 5774 5775 5774 5773 5773 5772 5775 5777 5776 5777 5777 5775 5773 5773 5773 5775 5776 5778 5781 5784 5784 5785 5786 5782 5775 5771 5775 5779 5780 5780 5779 5779 5779 5779 5779 5780 5781 5782 5783 5785 5787 5788 5789 5790 5791 5793 5793 5793 5794 5795 5797 5798 5798 5799 5799 5799 5800 5801 5802 5803 5804 5804 5804 5805 5806 5807 5807 5807 5807 5807 5808 5809 5810 5812 5812 5812 5812 5813 5813 5813 5813
5758 5758 5759 5762 5765 5768 5770 5772 5770 5769 5767 5763 5763 5766 5767 5769 5771 5771 5771 5772 5772 5769 5771 5775 5774 5773 5774 5772 5770 5770 5773 5774 5776 5777 5779 5780 5780 5779 5783 5785 5780 5773 5772 5775 5774 5772 5774 5774 5775 5775 5775 5776 5777 5777 5778 5780 5782 5785 5788 5789 5790 5791 5790 5790 5791 5793 5794 5796 5797 5797 5798 5798 5799 5800 5800 5801 5802 5802 5803 5804 5805 5805 5806 5806 5805 5805 5806 5808 5809 5810 5811 5811 5811 5812 5812 5812 5812
5755 5752 5753 5757 5761 5763 5765 5766 5768 5767 5764 5761 5760 5761 5763 5765 5766 5767 5768 5769 5771 5767 5767 5771 5772 5770 5770 5769 5764 5764 5768 5770 5772 5774 5775 5776 5777 5776 5778 5781 5781 5776 5772 5772 5769 5769 5771 5773 5774 5775 5775 5775 5776 5776 5776 5777 5781 5785 5787 5787 5787 5787 5788 5787 5788 5790 5792 5794 5795 5795 5796 5797 5798 5798 5799 5799 5800 5801 5802 5803 5803 5804 5804 5804 5804 5804 5804 5805 5807 5808 5809 5810 5810 5810 5811 5811 5811
5751 5749 5751 5756 5757 5759 5760 5762 5766 5766 5763 5761 5757 5756 5759 5762 5762 5764 5765 5766 5768 5766 5763 5766 5769 5767 5767 5767 5762 5759 5762 5764 5765 5769 5772 5773 5774 5775 5776 5778 5780 5777 5772 5770 5769 5771 5773 5774 5776 5776 5776 5776 5777 5777 5779 5780 5781 5783 5783 5783 5783 5785 5786 5785 5785 5788 5790 5791 5792 5793 5794 5795 5796 5797 5797 5797 5798 5800 5801 5802 5802 5802 5803 5803 5804 5804 5804 5804 5805 5806 5807 5808 5808 5809 5810 5810 5810
5747 5746 5749 5753 5755 5756 5758 5760 5763 5763 5761 5757 5753 5753 5757 5759 5760 5761 5762 5762 5764 5764 5761 5761 5765 5765 5764 5765 5762 5758 5760 5761 5762 5767 5770 5771 5773 5774 5774 5774 5775 5772 5769 5770 5771 5773 5776 5776 5776 5776 5776 5777 5779 5781 5782 5781 5781 5781 5782 5782 5782 5784 5785 5786 5785 5786 5788 5789 5790 5790 5791 5792 5794 5795 5796 5796 5797 5799 5800 5800 5800 5801 5802 5803 5803 5804 5804 5804 5805 5805 5806 5806 5806 5807 5808 5809 5809
5743 5744 5747 5750 5752 5753 5753 5756 5758 5758 5757 5755 5752 5751 5754 5756 5757 5758 5759 5758 5759 5761 5760 5758 5760 5761 5761 5761 5758 5758 5759 5759 5761 5765 5767 5769 5771 5771 5770 5770 5769 5766 5767 5771 5772 5774 5775 5774 5775 5775 5777 5778 5780 5782 5781 5780 5780 5781 5783 5783 5782 5783 5785 5786 5785 5785 5786 5787 5787 5788 5790 5791 5792 5793 5794 5795 5796 5797 5798 5798 5799 5800 5801 5802 5802 5803 5803 5803 5804 5803 5804 5804 5804 5805 5806 5807 5808
5740 5742 5745 5746 5748 5748 5749 5751 5754 5755 5756 5755 5752 5751 5751 5753 5753 5755 5756 5755 5755 5756 5757 5756 5755 5756 5758 5757 5754 5754 5757 5757 5758 5760 5763 5766 5768 5767 5766 5766 5765 5765 5769 5771 5771 5772 5773 5772 5773 5774 5777 5779 5780 5781 5780 5779 5780 5781 5782 5782 5782 5782 5783 5784 5784 5785 5785 5786 5787 5788 5789 5790 5792 5792 5792 5794 5795 5796 5797 5797 5798 5798 5800 5800 5800 5801 5801 5802 5802 5802 5803 5803 5803 5804 5805 5805 5806
5738 5741 5742 5742 5744 5745 5746 5748 5748 5750 5750 5750 5750 5750 5750 5750 5751 5753 5755 5755 5755 5754 5755 5755 5753 5752 5754 5754 5752 5751 5753 5754 5755 5757 5759 5763 5764 5764 5762 5761 5764 5765 5767 5769 5770 5771 5771 5771 5771 5773 5776 5777 5778 5779 5780 5780 5780 5780 5781 5781 5781 5781 5781 5782 5783 5785 5785 5786 5787 5787 5788 5789 5791 5790 5790 5791 5793 5794 5795 5796 5797 5797 5798 5799 5799 5800 5800 5801 5801 5801 5802 5802 5802 5803 5804 5804 5805
5735 5738 5739 5741 5742 5741 5743 5744 5744 5745 5745 5745 5746 5748 5748 5747 5748 5750 5751 5752 5753 5753 5754 5755 5753 5750 5751 5751 5749 5749 5750 5751 5753 5754 5756 5758 5760 5760 5758 5759 5763 5762 5763 5768 5769 5769 5769 5769 5770 5771 5774 5775 5776 5778 5779 5779 5779 5779 5779 5779 5779 5779 5780 5781 5783 5784 5784 5785 5785 5786 5787 5788 5789 5789 5788 5790 5791 5792 5793 5794 5795 5796 5796 5797 5798 5799 5799 5799 5800 5800 5800 5801 5801 5802 5803 5803 5803
5732 5735 5736 5738 5740 5738 5738 5740 5741 5743 5742 5742 5743 5746 5746 5745 5746 5748 5747 5748 5749 5749 5751 5751 5749 5748 5748 5748 5746 5746 5747 5748 5750 5751 5752 5753 5753 5754 5754 5757 5760 5758 5762 5767 5766 5765 5765 5765 5767 5770 5771 5773 5774 5775 5775 5776 5776 5776 5777 5777 5778 5778 5779 5781 5781 5782 5782 5783 5783 5784 5785 5787 5788 5787 5787 5789 5789 5789 5791 5792 5793 5794 5795 5796 5797 5797 5798 5798 5798 5799 5799 5800 5801 5801 5802 5801 5802
5728 5731 5732 5734 5735 5734 5735 5736 5738 5738 5738 5739 5741 5743 5744 5743 5744 5745 5744 5745 5746 5746 5746 5746 5746 5747 5747 5747 5744 5743 5744 5745 5747 5748 5749 5749 5749 5750 5751 5754 5756 5755 5760 5764 5763 5762 5762 5762 5765 5768 5769 5771 5771 5771 5772 5773 5773 5774 5776 5777 5777 5778 5779 5779 5780 5780 5780 5780 5781 5782 5783 5784 5786 5787 5787 5788 5788 5788 5790 5791 5792 5793 5794 5795 5796 5796 5797 5797 5797 5798 5798 5799 5799 5800 5800 5800 5800
5725 5728 5729 5731 5732 5732 5732 5733 5734 5734 5734 5738 5740 5741 5742 5741 5742 5741 5739 5741 5743 5743 5743 5744 5746 5746 5746 5744 5741 5741 5743 5744 5745 5746 5746 5745 5746 5748 5748 5750 5752 5753 5756 5760 5760 5760 5759 5760 5763 5765 5767 5768 5767 5768 5770 5771 5771 5772 5773 5774 5775 5776 5777 5777 5778 5778 5778 5778 5778 5779 5781 5782 5783 5785 5786 5787 5787 5787 5789 5789 5790 5792 5792 5794 5794 5795 5796 5796 5796 5797 5797 5798 5798 5799 5799 5799 5799
5722 5725 5726 5728 5730 5730 5730 5731 5731 5731 5733 5736 5738 5739 5740 5739 5738 5736 5735 5738 5741 5741 5741 5742 5744 5744 5743 5741 5739 5740 5742 5743 5743 5743 5742 5742 5743 5745 5746 5748 5751 5752 5754 5755 5756 5757 5758 5759 5760 5762 5764 5765 5764 5765 5768 5769 5769 5769 5769 5770 5771 5773 5774 5774 5775 5776 5776 5776 5777 5778 5779 5780 5781 5782 5784 5784 5785 5786 5787 5788 5789 5790 5791 5792 5793 5794 5794 5795 5795 5796 5796 5796 5797 5797 5798 5798 5798
5719 5722 5724 5725 5727 5728 5728 5729 5730 5730 5731 5734 5735 5737 5737 5735 5733 5732 5734 5736 5738 5740 5740 5740 5741 5741 5741 5738 5737 5739 5740 5741 5741 5740 5739 5739 5741 5743 5745 5747 5749 5751 5751 5751 5752 5754 5755 5756 5757 5759 5761 5761 5761 5763 5765 5766 5766 5766 5766 5766 5767 5768 5770 5771 5772 5773 5774 5774 5776 5777 5777 5778 5779 5780 5781 5782 5783 5784 5785 5786 5787 5788 5789 5790 5791 5793 5793 5794 5794 5794 5794 5795 5796 5796 5797 5797 5797
5718 5720 5722 5722 5724 5725 5727 5728 5728 5728 5729 5730 5732 5733 5732 5730 5729 5731 5733 5734 5736 5738 5738 5738 5738 5738 5738 5737 5736 5737 5737 5738 5739 5738 5737 5737 5738 5740 5741 5743 5746 5747 5747 5746 5747 5750 5750 5752 5754 5756 5758 5758 5759 5760 5761 5763 5763 5763 5763 5763 5764 5765 5766 5768 5769 5770 5771 5772 5774 5774 5775 5776 5777 5778 5779 5779 5781 5782 5783 5784 5786 5787 5788 5789 5790 5791 5792 5793 5793 5793 5793 5794 5795 5795 5796 5796 5796
5716 5717 5718 5719 5721 5723 5725 5726 5725 5725 5726 5727 5728 5728 5727 5727 5727 5729 5731 5732 5734 5734 5734 5735 5734 5735 5735 5735 5735 5734 5734 5735 5736 5736 5735 5735 5736 5737 5737 5739 5741 5742 5740 5739 5741 5744 5746 5748 5750 5752 5754 5755 5756 5757 5758 5759 5760 5760 5760 5761 5761 5762 5764 5765 5766 5767 5768 5769 5770 5771 5772 5773 5775 5776 5777 5778 5779 5780 5781 5783 5784 5786 5787 5787 5788 5789 5790 5791 5791 5792 5792 5792 5793 5794 5794 5795 5795
5714 5714 5715 5717 5720 5722 5722 5723 5722 5722 5723 5724 5725 5725 5725 5727 5726 5727 5729 5730 5731 5732 5732 5731 5731 5731 5732 5732 5731 5730 5729 5730 5732 5732 5732 5731 5731 5733 5734 5735 5736 5737 5738 5738 5740 5744 5747 5749 5751 5752 5753 5752 5753 5754 5755 5756 5756 5757 5757 5757 5758 5759 5761 5762 5763 5764 5765 5766 5767 5768 5769 5770 5772 5774 5775 5776 5777 5778 5780 5781 5783 5784 5785 5786 5787 5788 5789 5789 5790 5790 5791 5791 5791 5792 5793 5793 5794
5711 5712 5713 5716 5718 5719 5720 5720 5720 5720 5720 5721 5723 5723 5723 5724 5724 5726 5728 5728 5728 5729 5729 5729 5728 5728 5728 5728 5728 5727 5727 5728 5729 5729 5728 5727 5728 5730 5731 5733 5735 5736 5737 5740 5743 5746 5749 5751 5751 5753 5753 5752 5751 5751 5751 5752 5753 5753 5753 5753 5754 5755 5757 5758 5760 5761 5763 5764 5764 5765 5767 5769 5771 5772 5772 5774 5775 5776 5778 5780 5781 5783 5784 5785 5786 5786 5787 5787 5788 5789 5789 5790 5790 5790 5791 5791 5792
5708 5710 5712 5714 5716 5716 5716 5717 5717 5718 5718 5719 5721 5721 5719 5719 5722 5724 5726 5725 5725 5726 5727 5726 5726 5726 5726 5727 5726 5727 5728 5728 5728 5728 5728 5727 5727 5729 5731 5733 5734 5734 5736 5739 5741 5744 5746 5748 5748 5749 5749 5750 5751 5751 5751 5751 5750 5749 5749 5750 5751 5752 5754 5756 5757 5759 5761 5761 5762 5764 5766 5767 5768 5769 5770 5772 5773 5774 5775 5777 5779 5781 5782 5783 5784 5784 5785 5786 5786 5787 5788 5788 5788 5789 5789 5789 5790
5705 5707 5708 5710 5712 5713 5714 5714 5714 5716 5716 5716 5719 5718 5715 5715 5719 5721 5722 5723 5723 5724 5724 5724 5723 5723 5724 5725 5725 5726 5728 5727 5726 5727 5727 5728 5727 5728 5729 5730 5731 5732 5734 5737 5738 5740 5743 5744 5745 5745 5746 5748 5748 5748 5749 5749 5749 5748 5747 5748 5750 5751 5753 5754 5756 5757 5759 5759 5761 5762 5764 5765 5766 5767 5768 5769 5770 5771 5773 5775 5777 5779 5780 5781 5782 5783 5783 5784 5785 5786 5786 5787 5787 5787 5787 5788 5788
5703 5705 5706 5707 5709 5710 5711 5711 5712 5713 5713 5714 5716 5714 5712 5714 5717 5718 5719 5720 5720 5721 5721 5720 5721 5721 5722 5723 5723 5723 5724 5725 5724 5725 5726 5727 5727 5728 5729 5730 5730 5732 5733 5734 5736 5738 5740 5741 5742 5743 5743 5744 5744 5745 5745 5745 5746 5746 5747 5748 5749 5751 5753 5754 5755 5756 5757 5758 5760 5761 5762 5763 5764 5765 5766 5767 5768 5769 5770 5773 5775 5777 5778 5779 5780 5781 5782 5782 5783 5784 5785 5785 5785 5786 5786 5786 5787
5701 5702 5704 5706 5707 5708 5709 5709 5709 5710 5711 5712 5712 5710 5710 5713 5715 5716 5717 5717 5717 5717 5716 5716 5717 5718 5719 5720 5721 5722 5723 5724 5724 5724 5725 5725 5725 5727 5729 5731 5731 5732 5732 5733 5735 5736 5737 5738 5739 5739 5739 5739 5739 5741 5743 5743 5744 5745 5746 5748 5749 5750 5752 5753 5753 5754 5756 5757 5758 5760 5761 5762 5763 5763 5764 5765 5766 5767 5769 5771 5773 5774 5776 5777 5778 5779 5780 5781 5781 5782 5783 5783 5783 5784 5784 5785 5785